Regional Weather Roundup
Issued by NWS

Home | Current Version | Previous Version | Graphics & Text | Print | Product List | Glossary On
Versions: 1 2 3 4 5 6 7 8 9 10 11 12 13 14 15 16 17 18 19 20 21 22 23 24 25 26 27 28 29 30 31 32 33 34 35 36 37 38 39 40 41 42 43 44 45 46 47 48 49 50
000
ASUS43 KDMX 261307
RWRIA

WEATHER ROUNDUP FOR IOWA
NATIONAL WEATHER SERVICE DES MOINES IA
800 AM CDT TUE MAY 26 2015

NOTE: "FAIR" INDICATES FEW OR NO CLOUDS BELOW 12,000 FEET WITH NO
SIGNIFICANT WEATHER AND/OR OBSTRUCTIONS TO VISIBILITY.

* - THESE STATIONS ARE NOT NWS STATIONS...THUS NOT UNDER NWS
QUALITY CONTROL.  THEY ALSO DO NOT REPORT WEATHER SUCH
AS PRECIPITATION OR FOG.

IAZ001>003-012>014-020>022-031>034-043>046-261400-
   NORTHWEST IOWA

CITY           SKY/WX    TMP DP  RH WIND       PRES   REMARKS
CARROLL *      CLOUDY    59  59 100 CALM      29.78S
CHEROKEE *     LGT RAIN  61  61 100 CALM      29.79F
DENISON *      SUNNY     61  61 100 CALM      29.76F
LE MARS *      CLOUDY    59  59 100 N7        29.81S
ORANGE CITY *  CLOUDY    57  55  94 NE7       29.81R FOG
SHELDON *      CLOUDY    57  57 100 NE9       29.81R
SIOUX CITY     LGT RAIN  62  59  90 NW5       29.78F FOG
SPENCER        CLOUDY    59  57  93 NE8       29.80S
STORM LAKE *   CLOUDY    59  59 100 S7        29.79F
$$

IAZ055>058-069>071-079>083-090>094-261400-
   SOUTHWEST IOWA

CITY           SKY/WX    TMP DP  RH WIND       PRES   REMARKS
ATLANTIC *     CLOUDY    61  61 100 CALM      29.78S
AUDUBON *      LGT RAIN  61  57  88 CALM      29.79S
COUNCIL BLFS * CLOUDY    61  61 100 CALM      29.78F
CRESTON *      LGT RAIN  59  59 100 CALM      29.79R
HARLAN  *      CLOUDY    61  61 100 CALM      29.81F
LAMONI         LGT RAIN  63  60  90 NW5       29.78R
RED OAK *      CLOUDY    61  61 100 CALM      29.78S
SHENANDOAH *   MOSUNNY   63  61  94 SE5       29.78S
$$

IAZ047>049-059>061-072>074-084-261400-
   CENTRAL IOWA

CITY           SKY/WX    TMP DP  RH WIND       PRES   REMARKS
AMES           LGT RAIN  60  59  96 NW10      29.77F FOG
ANKENY *       LGT RAIN  61  61 100 VRB3      29.78S
CHARITON *     HVY RAIN  61  59  94 N12       29.76R
DES MOINES     RAIN      62  59  90 N6        29.77S FOG
GRINNELL*      HVY RAIN  61  59  94 NW8       29.78R
KNOXVILLE *    LGT RAIN  61  59  94 NE13      29.73F
MARSHALLTOWN   LGT RAIN  60  59  96 NW9       29.76F FOG
PELLA *        RAIN      61  61 100 N8        29.76F
PERRY *        RAIN      61  59  94 NE6       29.77F
$$

IAZ004>006-015-016-023>025-035-036-261400-
   NORTH CENTRAL IOWA

CITY           SKY/WX    TMP DP  RH WIND       PRES   REMARKS
ALGONA *       SUNNY     61  61 100 S10       29.79F
CLARION *      LGT RAIN  59 N/A N/A CALM      29.79F
ESTHERVILLE    CLOUDY    58  56  93 NW9       29.81S
FORT DODGE *   CLOUDY    59  55  88 CALM      29.79F
MASON CITY     LGT RAIN  61  58  90 W12       29.81F
FOREST CITY *  LGT RAIN  59  59 100 S6        29.81S
IOWA FALLS *   RAIN      61  59  94 NW5       29.79F
$$

IAZ007>011-017>019-026>030-037>042-050>054-066-261400-
   NORTHEAST IOWA

CITY           SKY/WX    TMP DP  RH WIND       PRES   REMARKS
CEDAR RAPIDS   LGT RAIN  66  65  96 SE13      29.76F FOG
CHARLES CITY * RAIN      61  61 100 W5        29.82S
CLINTON *      CLOUDY    68  64  88 S14       29.84F
DECORAH *      RAIN      59  59 100 NW6       29.81R
DUBUQUE        TSTM      66  65  96 S8        29.83R FOG
MONTICELLO *   RAIN      68  68 100 SE10      29.81R
OELWEIN *      HVY RAIN  61  59  94 SW17G46   29.84R
WATERLOO       RAIN      60  59  96 NW7       29.80S FOG
$$

IAZ064-065-067-068-078-261400-
   EAST CENTRAL IOWA

CITY           SKY/WX    TMP DP  RH WIND       PRES   REMARKS
DAVENPORT      CLOUDY    69  66  90 SE14      29.80F
IOWA CITY      LGT RAIN  67  65  93 SE7       29.78F
MT. PLEASANT * RAIN      64  64 100 S15G23    29.78F
MUSCATINE *    LGT RAIN  70  68  94 SE9       29.77F
QUAD CITIES    CLOUDY    70  66  87 SE9       29.79F
$$

IAZ062-063-075>077-085>089-095>099-261400-
   SOUTHEAST IOWA

CITY           SKY/WX    TMP DP  RH WIND       PRES   REMARKS
BURLINGTON     HVY RAIN  64  63  96 SW16G31   29.80R FOG
FAIRFIELD *    CLOUDY    66  63  88 S14       29.75F
FORT MADISON * LGT RAIN  63  63 100 S8G16     29.80R
KEOKUK *       CLOUDY    64  64 100 S8G15     29.77F
OSKALOOSA *    RAIN      61  59  94 N12       29.76F
CENTERVILLE *  PTSUNNY   64  64 100 SW7G23    29.75S
OTTUMWA        LGT RAIN  61  60  97 NW14G24   29.74F
WASHINGTON *   CLOUDY    66  64  94 S15G22    29.79R
$$

ABBREVIATIONS USED IN REMARKS
   TC - TEMPERATURES IN CELSIUS
  WCI - WIND CHILL INDEX
   HX - HEAT INDEX
  VSB - VISIBILITY
$$



USA.gov is the U.S. government's official web portal to all federal, state and local government web resources and services.